Location: Cheb
(50.0670°N, 12.3670°E)
Time: 22:03:45
(UTC+02:00)

ISS - Pass Details

Date: 27 March 2019
Orbit: 408 x 410 km, 51.6° (Epoch: 24 April)

Event Time Altitude Azimuth Distance (km) Brightness Sun altitude
Rises 20:08:35 0° 264° (W) 2,334 1.1 -15.4°
Reaches altitude 10° 20:10:40 10° 267° (W) 1,473 0.0 -15.8°
Maximum altitude 20:13:58 70° 352° (N) 439 -3.6 -16.2°
Enters shadow 20:15:16 33° 67° (ENE) 710 -3.0 -16.4°
